STARLINK-37012, 68221

Orbit data source: Space-Track

STARLINK-37012, 68221 is a payload satellite owned by SpaceX/Seattle (US) in SSO that was launched on Tue, 17 Mar 2026 UTC via an FALCON 9 launch vehicle from the Air Force Western Test Range (AFWTR). Payload-class satellites include a variety of spacecraft equipped with specific instruments for various scientific and technological missions. These include communications satellites like Starlink; space stations such as the ISS; scientific satellites like the Hubble; Earth observation satellites from companies like Planet Labs, Umbra, and HawkEye 360; GPS; miniature CubeSats for education and research; and military/defense satellites.

Loading next visibility...
Identifier
68221, 2026-053Q
Orbit
SSO
Country
Flag of USUS
Related business
Manufacturer
SpaceX/Seattle
Mission
Operational spacecraft
Bus & Motor
STARLINK V2MO, Unknown motor
Mass
575 kg wet, ~530 kg dry
Launch date (UTC)
2026-03-17 (3 months ago)
Launch vehicle
FALCON 9
Launch site
Air Force Western Test Range (AFWTR)
Object type
Payload
Rocket body
Debris
Shape & HBR
Unknown shape, 17.7 m
Radar Cross Section
Large (>1 m²)

Expand to show TLE details & history
Last TLE update: 12 hours ago

TLE from 12 hours ago
0 STARLINK-37012
1 68221U 26053Q   26171.35982382  .00012839  00000-0  39932-3 0  9994
2 68221  97.2879  46.4545 0001248 100.4371 259.7012 15.33446964 15953
Epoch: 2026-06-20T08:38Z
TLE epoch observation values (Epoch: 2026-06-20T08:38:08.778Z)
Latitude
-0.00004°
Longitude
8.34236°
Altitude
468.802 km
Speed
7.632 km/s
True Right ascension
03h 05m 49s
True Declination
0° 00' 00"
Sunlit
Object was in daylight at epoch
Visualization orbit readout
Latitude
Unknown
Longitude
Unknown
Altitude
Unknown
Speed
Unknown
Apparent Right ascension
Unknown
Apparent Declination
Unknown
Sunlit
N/A
Visualization observer readout
Local Sidereal Time
07:21:34
Azimuth
Unknown
Elevation
Unknown
Doppler factor
Unknown
Orbital elements
Apogee altitude
463.334 km
Perigee altitude
461.627 km
Semi-major axis
6,840.617 km
Eccentricity
0.00012
Inclination
97.2879°
RAAN
46.4545°
Arg. of periapsis
100.4371°
True anomaly
259.68713°
Mean anomaly
259.7012°
Eccentric anomaly
259.69416°
Mean motion
3.83619 °/min
Orbital period
93.84 mins
BSTAR
0.00039932
Loading maneuver chart data...
Computing Atmospheric mass density...
Loading historical data...
Loading historical data...
Loading historical data...
Loading historical data...
Loading historical data...
Loading historical data...
Loading historical data...

Documentation

Showing up to 5 results
|